RH
93 91 90 89 89 90 90 92 95 96 98 94 91 95 96 100 101 79 59 56 53 67 87 80 69 67 57 45 40 37 35 32 30 30 35 39 37 39 47 46 45 47 43 42 42 39 32 16 10 16 16 16 17 10 8 10 8 11 16 16 25 35 34 30 29 23 17 14 10 10 10 10 14 15 13 15 19 20 25 37 39 26 29 59 83 95 97
91 91 92 92 91 90 89 92 94 94 100 100 96 98 99 98 98 87 73 61 56 71 83 78 73 63 49 46 43 37 32 28 30 36 39 39 32 32 38 42 48 48 42 45 45 43 43 29 12 13 17 17 15 10 8 9 9 11 16 19 21 26 34 40 37 27 22 22 19 17 15 13 18 19 15 14 16 17 18 20 23 29 35 52 79 98 98
89 88 91 92 92 92 92 94 94 96 101 98 94 99 99 95 97 95 83 67 64 72 71 72 80 72 62 62 57 48 40 33 36 40 40 36 30 29 32 37 46 43 39 46 44 37 41 35 21 17 15 16 15 9 8 11 9 11 18 20 22 31 40 46 52 53 49 42 35 31 26 18 17 19 16 15 13 15 28 33 25 29 42 57 80 99 101
88 89 92 93 93 94 95 96 97 98 100 98 95 98 99 97 95 94 87 73 70 72 65 68 81 78 75 76 66 59 53 42 37 39 41 36 29 30 31 29 39 47 47 53 48 36 33 33 32 27 20 18 14 7 11 11 6 16 28 25 22 32 36 35 46 58 58 51 36 24 23 21 19 19 16 16 15 15 31 44 37 38 61 80 86 91 100
91 92 94 94 94 96 96 96 96 95 96 98 98 97 99 99 87 78 81 80 78 76 65 61 67 66 70 75 68 65 66 57 46 40 36 31 29 37 37 32 42 55 56 60 57 42 33 37 42 34 22 19 14 10 11 8 12 29 34 26 26 36 37 32 34 39 43 44 35 22 21 20 18 22 23 21 20 17 23 38 47 48 61 83 90 88 97
94 95 95 93 92 91 91 92 89 87 91 95 97 98 98 97 84 64 62 72 78 78 67 60 65 65 64 68 70 73 73 69 63 50 35 31 35 45 48 40 41 47 48 55 58 47 45 58 59 42 30 25 18 15 12 10 23 33 24 23 35 43 41 37 36 38 39 38 34 33 34 26 16 16 21 25 27 25 29 47 59 52 49 71 89 89 94
96 95 95 96 92 87 89 90 82 78 87 92 97 101 95 93 89 71 61 67 73 77 72 68 77 79 73 77 80 77 72 66 58 47 43 47 45 47 57 50 38 38 39 46 57 58 63 75 70 59 60 53 36 26 22 20 26 24 17 25 37 43 48 47 46 50 49 41 37 43 53 51 39 29 30 39 48 51 59 72 78 73 71 80 87 89 93
97 93 93 96 94 90 91 88 74 68 82 92 95 98 95 94 96 88 82 78 75 79 79 77 85 87 83 85 77 63 61 61 57 50 51 62 58 50 56 52 41 44 50 56 67 68 68 74 69 64 76 75 57 44 37 31 25 19 22 28 31 41 51 50 54 60 56 52 52 57 67 71 68 66 64 66 70 73 78 82 81 84 89 86 86 95 99
97 94 94 96 96 94 91 86 76 69 78 90 92 92 91 91 90 90 96 91 81 85 87 83 89 90 84 81 72 64 65 66 69 67 57 58 63 57 55 54 51 57 63 69 76 68 63 68 65 64 73 74 65 56 46 38 30 27 31 28 27 46 59 55 61 67 60 60 66 66 65 69 76 82 81 80 82 83 83 80 76 82 91 92 94 100 100
94 94 96 98 99 97 93 92 90 83 83 88 88 87 86 86 84 85 94 95 88 92 95 90 92 90 84 81 77 76 76 69 75 82 68 54 55 55 55 55 59 71 77 76 75 67 61 63 65 67 68 59 52 49 42 36 33 35 42 41 38 54 72 72 69 70 71 79 85 72 58 65 81 86 83 84 85 84 85 84 79 78 83 90 94 93 92
96 96 97 98 99 98 96 96 94 92 94 95 92 89 86 88 92 91 93 97 93 95 98 98 98 93 87 85 82 81 80 74 75 84 78 62 54 52 51 49 59 77 79 69 64 61 56 56 59 60 56 50 46 43 38 37 36 35 45 58 60 63 76 84 77 76 87 95 92 76 62 69 86 85 78 79 80 81 89 92 88 84 83 85 87 86 86
97 96 96 97 98 97 95 95 93 92 96 97 96 95 88 87 94 96 96 98 97 96 99 99 97 92 86 83 83 82 83 78 72 73 74 68 61 56 51 54 67 74 65 57 58 57 54 57 63 59 51 52 52 45 42 46 46 39 38 51 67 72 80 89 85 85 96 94 82 79 81 85 87 79 71 73 74 78 87 91 88 88 89 89 89 87 84
95 94 96 98 99 96 93 94 93 93 96 97 97 98 92 88 94 98 98 100 98 96 97 94 86 84 83 80 79 81 80 76 71 69 69 68 66 60 49 51 63 61 51 52 57 57 61 71 78 74 62 62 65 57 52 53 54 53 47 45 57 69 77 87 88 85 92 90 81 83 90 88 81 74 69 70 71 72 80 92 92 87 86 88 88 85 79
96 94 94 98 100 98 97 96 92 92 98 99 97 98 95 91 95 97 97 100 97 91 94 96 87 79 77 73 74 81 83 80 77 74 73 73 74 71 59 50 51 48 45 54 65 68 71 77 84 85 77 76 79 72 66 67 66 67 66 58 56 59 65 78 87 83 84 92 92 90 93 92 86 80 74 71 72 69 74 91 96 84 79 82 82 81 78
99 92 85 92 100 99 99 100 96 95 99 99 97 98 96 92 94 96 94 96 99 94 92 95 88 77 71 67 69 79 88 91 87 81 80 79 74 70 61 47 44 43 41 54 74 78 73 76 87 91 85 82 82 77 77 83 77 65 67 69 65 64 63 66 77 82 83 92 98 95 96 97 89 82 75 70 72 70 70 86 95 83 74 76 77 79 79
99 92 78 81 94 98 99 102 99 96 99 99 98 99 97 92 90 90 89 93 99 96 84 76 72 69 70 67 65 74 88 95 91 84 81 77 66 59 53 42 41 45 44 53 68 70 67 75 85 89 87 85 85 82 82 90 87 69 65 69 68 73 76 69 73 85 86 86 91 92 92 87 78 76 76 69 69 69 66 79 93 85 72 71 75 77 76
100 96 77 70 78 84 87 96 101 100 99 99 100 100 96 92 90 89 88 91 98 96 78 65 68 76 79 75 70 76 87 90 89 90 86 77 66 56 46 40 41 43 45 54 62 63 68 73 76 85 91 85 84 85 81 87 93 83 79 82 77 81 91 84 77 83 86 85 89 90 90 85 74 72 73 65 62 64 63 73 86 82 72 70 74 76 74
101 97 78 62 63 63 64 74 89 99 101 99 100 101 94 89 90 89 85 87 97 96 77 61 63 67 66 67 71 78 85 85 86 91 90 86 83 67 48 44 47 41 43 57 64 67 76 77 72 82 92 85 82 86 82 84 90 86 85 89 81 77 85 86 81 83 85 87 91 93 92 83 70 67 68 63 64 72 75 78 80 76 72 70 70 72 71
100 98 81 59 54 55 54 55 64 84 99 100 100 100 91 86 90 90 85 87 92 90 74 58 50 40 31 37 52 61 66 70 76 85 91 91 85 69 52 51 53 45 48 63 67 66 76 81 75 78 88 88 86 86 83 83 86 84 83 83 78 73 75 79 84 87 84 85 91 96 92 77 63 64 65 62 71 85 85 77 72 70 70 69 68 68 67
99 100 83 59 51 52 52 50 50 61 81 94 99 98 86 80 89 90 85 84 88 88 76 54 42 37 25 24 36 43 48 57 64 74 84 78 65 66 71 73 70 61 59 68 73 68 71 80 82 79 80 84 85 85 87 86 82 81 84 87 84 81 81 83 85 85 84 86 91 96 91 74 63 66 68 68 79 88 81 71 68 67 66 67 68 66 65
99 95 76 55 51 50 47 48 45 45 58 75 91 98 88 78 84 86 80 81 89 95 83 54 45 52 41 24 25 29 36 48 52 55 62 59 56 65 70 67 72 71 61 62 67 64 64 74 79 75 73 79 82 82 86 89 84 80 83 88 88 85 85 88 86 82 85 89 88 87 83 71 64 70 75 77 78 76 69 67 70 69 66 67 69 69 71
93 81 60 46 47 46 43 43 40 40 45 54 72 95 95 81 81 84 80 79 85 89 79 60 56 59 39 18 19 22 24 34 39 41 49 58 63 63 52 51 68 71 63 66 67 57 58 70 75 74 78 84 85 84 87 92 94 88 82 83 89 85 76 80 87 86 84 86 85 81 77 70 67 69 72 73 70 65 63 66 69 70 69 67 68 71 73
83 64 45 38 40 41 39 37 35 37 40 43 58 82 81 66 72 84 82 79 84 83 72 61 57 50 29 15 20 22 20 27 33 35 43 56 65 60 46 48 60 60 61 76 75 61 62 71 76 80 80 75 76 84 88 89 95 97 85 77 82 79 69 74 88 86 77 77 77 73 72 70 66 64 63 63 63 61 61 64 66 67 65 63 64 66 67
76 52 35 32 35 35 33 31 30 31 35 38 48 64 62 53 63 80 81 80 85 84 75 61 46 36 26 19 20 22 21 24 29 31 35 43 56 62 54 46 45 49 57 65 62 56 55 52 55 70 72 61 61 72 78 81 88 92 86 79 78 73 65 71 82 81 80 84 78 69 70 70 65 62 61 60 59 58 59 62 63 62 60 60 61 62 62
71 45 31 30 31 31 29 27 24 26 31 32 37 52 61 59 62 71 75 76 78 83 88 76 45 23 20 19 19 22 24 23 25 29 30 32 41 53 53 41 38 49 58 54 48 52 49 38 42 59 64 55 53 58 65 73 77 75 77 82 79 68 62 70 79 80 83 84 73 64 65 64 60 62 64 61 59 59 59 60 60 59 59 61 61 60 62
64 42 32 29 29 30 29 25 23 24 28 28 32 47 55 53 56 62 63 65 69 73 81 75 45 20 18 21 20 21 24 25 25 26 28 30 32 36 41 43 45 49 52 51 46 45 46 46 50 57 58 52 50 53 58 61 59 61 68 70 65 62 66 72 76 80 82 78 68 64 67 66 62 63 65 63 61 60 60 60 60 59 61 61 61 60 59
59 42 34 28 28 29 28 25 22 24 26 27 34 49 51 47 55 58 48 50 66 73 73 71 54 31 21 21 19 20 24 26 26 25 27 29 29 29 36 49 53 47 48 56 55 47 51 61 59 54 57 58 54 53 55 52 51 61 68 61 57 68 77 76 78 87 89 80 69 67 73 76 70 64 64 64 60 60 62 62 60 61 62 62 63 62 58
55 41 33 28 28 28 28 25 22 23 26 26 33 48 55 55 59 52 32 32 58 74 77 77 68 48 33 26 20 19 24 26 25 27 28 26 26 28 34 44 49 45 46 58 61 56 61 69 61 54 60 68 63 57 58 60 65 72 70 59 58 69 74 72 78 86 82 71 65 66 70 74 69 62 62 61 59 61 64 63 61 62 62 60 62 62 60
51 39 34 29 27 27 28 25 23 23 25 27 33 45 56 61 57 43 26 26 48 69 75 72 63 49 37 29 20 17 21 25 25 25 26 28 31 34 36 41 46 44 44 49 54 56 58 60 59 58 59 61 62 61 64 73 78 74 63 54 54 59 60 60 67 71 66 63 64 65 66 67 64 60 59 58 58 61 64 62 62 61 59 58 58 58 57
48 39 35 29 26 28 27 24 25 24 22 26 35 46 56 60 50 34 23 25 43 65 74 70 60 46 31 27 27 23 20 22 26 27 29 34 37 35 33 37 42 44 47 51 53 53 50 48 52 54 49 48 55 61 66 74 75 64 54 52 53 55 56 57 58 59 60 61 61 61 62 63 59 56 57 57 57 59 62 62 60 58 55 55 54 53 53
47 41 37 30 27 28 26 24 26 24 21 28 40 50 58 57 44 30 23 24 41 66 74 67 58 44 29 27 30 25 18 20 26 29 31 33 34 31 29 34 40 44 48 52 52 50 48 48 51 51 47 49 55 57 63 74 76 66 58 58 59 59 61 61 58 56 57 59 60 61 62 61 58 58 59 57 55 56 58 58 56 54 52 51 51 52 52
46 42 39 32 27 26 26 26 26 24 24 29 35 41 45 43 36 29 23 23 43 66 68 56 48 39 31 30 28 19 16 20 26 31 34 33 33 32 31 33 38 40 39 43 47 48 47 49 55 57 56 59 61 59 65 77 79 70 64 64 63 62 62 63 61 58 57 58 62 68 71 66 61 60 59 56 54 53 54 54 52 50 50 50 48 48 45
47 47 44 36 29 25 24 25 27 27 26 27 32 37 38 34 32 28 21 27 50 63 52 43 43 37 31 34 32 21 19 25 29 34 37 34 33 36 37 36 39 40 37 39 44 45 44 49 57 59 57 60 64 66 70 74 71 65 64 65 63 62 62 61 60 58 58 58 61 68 72 67 60 58 55 53 53 51 50 50 50 49 49 49 46 42 38
52 54 48 37 28 24 24 25 27 29 27 29 39 47 41 31 27 23 19 32 58 60 41 34 42 37 29 35 36 25 21 28 32 34 36 35 32 35 38 38 39 41 40 39 41 43 43 47 58 62 58 59 66 72 72 68 63 60 61 61 60 60 61 62 62 61 60 60 60 62 62 60 58 57 54 52 52 51 48 48 48 49 49 47 43 38 36
57 58 51 40 27 21 22 22 23 27 31 33 38 40 34 27 27 24 21 34 59 64 45 35 39 39 35 39 40 29 22 26 29 28 32 35 31 27 31 38 41 41 39 36 39 43 42 43 56 66 60 58 67 73 69 64 63 62 62 61 61 61 62 64 64 63 61 61 61 59 58 57 57 57 55 54 53 51 49 49 49 48 46 43 39 37 37
60 58 49 34 21 19 25 27 26 34 44 47 41 35 30 27 25 20 17 27 48 58 48 39 44 46 39 36 34 27 23 29 31 25 26 31 28 23 30 39 41 38 38 39 43 46 43 45 59 69 65 63 69 68 60 59 62 62 60 60 60 60 61 62 62 61 60 61 61 60 58 57 56 56 55 54 53 52 52 52 49 45 42 41 41 41 40
60 55 41 27 26 35 39 34 31 37 45 44 35 28 27 26 22 21 23 31 43 50 46 47 55 51 36 30 31 27 25 31 32 25 25 29 26 23 31 39 39 38 45 49 47 45 46 52 65 73 71 67 66 61 56 59 61 59 58 60 59 58 59 59 57 58 61 63 63 61 58 55 55 55 54 54 53 53 52 49 44 40 40 41 43 43 40
58 54 43 33 38 48 49 42 39 38 35 29 26 29 33 32 28 29 32 37 45 50 48 48 53 45 32 30 32 27 27 34 35 28 26 28 24 21 27 34 34 35 43 46 39 36 44 54 63 70 69 62 58 58 57 58 58 58 58 60 59 58 58 57 55 58 63 65 64 61 58 56 57 56 54 54 53 49 46 43 40 39 40 41 42 40 36
58 60 55 45 46 53 55 52 48 40 30 26 30 35 37 34 31 32 31 29 34 40 39 39 41 38 34 35 33 24 24 37 43 37 30 29 27 24 25 29 29 30 39 44 37 36 46 54 58 66 70 63 57 59 58 55 57 59 57 57 58 56 55 54 54 55 60 61 59 55 54 55 55 55 54 53 50 44 40 40 40 39 40 39 38 36 34
66 71 69 62 62 61 51 41 40 39 35 33 34 34 33 32 31 29 28 27 28 29 30 32 34 31 30 35 35 26 24 33 40 36 32 32 31 27 26 28 28 28 35 39 35 37 47 52 54 66 76 70 61 60 59 56 58 59 56 56 57 53 50 52 52 51 52 53 50 48 48 49 49 49 49 48 45 42 42 41 39 38 38 37 35 35 34
82 82 78 74 75 71 58 46 43 43 39 37 37 35 34 35 31 26 25 31 33 27 22 26 31 31 28 31 35 33 30 32 34 31 29 31 32 30 28 27 26 26 29 31 30 33 42 48 51 61 70 68 62 60 60 59 59 58 56 56 55 51 49 50 49 47 47 49 49 47 45 43 42 42 41 39 40 42 42 40 38 37 36 35 35 35 33
83 85 84 84 84 83 78 66 52 41 37 38 40 39 35 33 32 30 29 30 31 28 23 24 31 35 31 28 30 32 29 27 28 29 27 25 24 24 22 21 24 28 30 29 27 28 33 43 54 59 60 60 60 58 58 60 60 57 54 55 54 52 50 50 48 46 45 45 46 46 42 37 36 36 35 34 36 39 37 36 37 37 34 33 34 34 34
76 83 92 96 89 79 71 58 43 36 40 43 44 44 41 34 30 32 31 26 24 26 26 26 31 35 31 26 28 31 27 25 28 30 27 23 22 22 21 22 28 32 29 26 27 27 28 42 59 63 56 55 58 57 56 58 57 55 54 55 52 48 47 48 48 46 42 40 41 40 37 34 33 33 32 32 34 35 33 33 35 35 32 32 34 34 34
82 80 85 89 78 61 52 45 37 37 44 45 43 46 49 43 36 37 38 34 28 28 27 27 31 36 35 31 30 29 26 26 28 26 22 20 21 21 23 25 29 30 27 26 29 30 32 43 57 58 52 50 53 54 55 56 55 55 56 54 50 47 47 47 46 43 40 38 36 34 33 32 31 30 31 31 31 32 34 35 34 31 30 33 34 33 34
86 76 73 74 65 50 43 42 39 38 41 42 40 42 46 47 45 41 38 32 28 26 27 27 29 32 34 33 31 27 24 25 25 22 20 21 22 24 27 27 23 22 25 29 28 31 42 53 56 52 50 51 51 52 55 55 54 54 55 53 52 52 51 48 45 43 40 38 35 33 33 32 30 30 32 31 28 30 35 36 32 29 31 33 34 34 37
87 74 66 65 58 46 40 41 41 39 37 37 37 38 39 40 38 35 30 26 23 25 28 29 29 31 32 29 27 26 24 23 22 21 21 23 26 27 29 28 24 23 30 34 30 31 46 59 57 49 48 51 50 50 52 53 52 53 54 54 54 52 48 44 43 42 39 36 34 32 32 32 31 33 34 32 29 31 34 33 30 30 33 34 33 33 38
78 65 60 59 51 41 39 41 41 37 35 34 34 34 33 31 29 28 27 26 26 29 31 29 28 30 32 29 27 27 25 22 23 24 23 24 28 27 26 28 31 29 31 35 34 33 41 52 52 46 45 48 48 48 50 52 51 52 52 51 49 47 44 42 42 39 35 33 33 33 33 33 33 34 35 34 32 32 33 32 30 29 31 33 33 33 37
69 60 64 65 52 39 37 40 37 32 32 33 30 27 26 26 27 28 30 31 32 35 36 31 25 26 29 28 28 30 28 25 26 27 25 27 33 33 30 32 33 29 28 36 42 42 42 45 45 43 43 45 46 46 49 51 51 49 49 48 46 43 41 41 39 36 32 32 34 35 35 34 33 35 36 36 34 32 32 33 31 29 28 30 31 32 36
63 58 64 66 56 43 37 35 33 32 31 29 27 27 27 26 26 27 31 31 30 32 37 35 30 29 30 27 25 26 28 28 28 27 26 29 34 36 34 32 32 31 31 33 37 39 39 41 42 42 42 43 44 45 47 50 50 48 47 45 43 40 39 38 36 33 31 32 34 35 34 34 35 36 36 36 35 33 30 30 31 30 28 29 31 32 32
55 56 63 68 67 59 47 37 37 38 34 27 25 26 26 26 27 29 33 32 29 31 36 37 32 28 28 27 25 25 27 27 27 28 30 31 32 32 31 30 33 37 37 32 32 38 40 39 40 43 43 42 43 44 45 47 48 47 44 41 38 36 35 34 33 32 32 32 33 33 33 34 35 34 33 34 34 32 28 28 31 32 30 29 31 33 32
50 54 59 62 64 63 55 46 45 45 39 33 29 27 26 27 29 29 28 29 30 32 36 35 30 26 27 28 26 26 27 27 27 30 34 32 28 29 32 36 39 41 38 33 35 40 40 36 38 42 42 41 43 44 42 43 45 43 39 37 35 33 33 33 32 32 32 32 31 32 33 32 31 31 31 31 31 30 30 30 30 29 28 29 32 35 34
53 55 56 51 48 47 47 45 44 42 38 35 32 27 26 30 31 26 21 25 33 38 36 31 28 28 30 30 28 26 26 27 29 32 33 30 26 27 35 42 42 36 30 31 37 41 38 37 40 42 40 41 44 43 41 42 43 40 37 35 34 33 34 34 32 31 32 33 32 32 31 28 28 29 29 29 32 35 36 33 30 28 27 28 32 34 33
Wind_Speed
20 19 17 16 17 17 18 19 20 20 17 10 6 5 2 1 1 1 10 18 16 7 1 3 4 4 6 8 11 10 10 9 7 7 8 8 6 5 3 6 5 3 4 4 5 5 2 8 9 6 8 10 9 11 15 15 12 10 6 7 5 3 4 4 2 2 4 6 8 12 11 8 5 6 6 5 5 6 6 4 3 3 3 4 3 2 1
22 21 18 16 16 16 17 19 19 19 16 11 7 4 1 1 1 1 7 12 11 5 2 2 3 5 7 9 11 10 10 8 5 6 9 8 5 2 1 4 4 3 4 4 4 3 1 5 8 6 7 8 11 13 16 15 11 8 7 5 5 4 3 4 4 2 4 6 6 7 9 8 3 3 5 5 6 8 6 4 2 2 2 7 5 1 1
22 22 20 18 17 16 18 19 19 19 17 11 5 2 1 1 1 1 4 8 6 3 3 2 3 5 6 8 9 9 8 5 3 6 10 11 8 2 1 2 1 3 4 5 5 3 1 3 6 5 5 6 10 14 16 15 10 8 10 8 5 4 3 4 5 5 6 7 5 5 6 5 3 2 5 6 8 9 6 4 4 3 2 7 6 4 3
21 21 21 20 19 18 18 19 18 18 18 12 5 4 3 1 1 1 1 3 3 4 4 3 4 5 5 6 6 7 7 5 5 8 10 11 8 4 2 1 1 2 5 4 3 4 5 4 5 6 4 3 5 9 13 15 13 11 14 12 5 2 3 4 6 5 5 6 3 3 6 5 6 7 6 7 8 8 7 5 4 5 3 4 4 12 12
20 20 20 20 20 19 19 19 17 17 16 11 4 3 2 1 1 1 2 2 3 4 5 5 5 5 4 3 3 5 8 7 6 8 6 4 3 3 3 3 1 1 4 4 2 6 7 4 7 9 5 2 2 6 8 13 15 12 12 12 6 3 2 5 6 2 2 2 2 2 4 8 9 8 6 5 7 8 6 5 5 8 5 2 5 17 18
19 20 20 20 21 20 19 19 17 17 15 9 4 2 1 1 2 1 1 2 3 3 4 4 4 6 6 4 2 4 8 6 3 5 5 4 5 3 2 3 3 3 5 4 3 5 6 4 6 7 2 2 3 4 2 6 10 11 9 6 5 5 2 4 5 3 3 3 5 6 3 3 9 11 10 6 5 6 5 3 5 8 6 6 12 17 16
18 19 19 20 21 20 20 19 19 18 16 8 3 2 2 1 2 3 2 2 2 1 3 3 3 5 5 2 1 4 8 6 4 4 4 4 4 4 3 4 4 5 7 5 3 4 4 2 4 5 6 5 2 1 3 2 4 10 8 2 3 5 1 1 5 5 4 5 5 7 8 6 3 3 4 1 6 7 7 5 7 10 9 12 17 15 11
19 20 20 20 20 20 20 20 20 19 16 7 2 3 1 0 1 3 3 2 1 2 4 3 2 3 3 2 4 5 7 6 4 5 5 3 3 3 4 4 5 7 9 8 5 4 2 1 2 4 5 5 4 3 3 2 1 6 6 2 4 6 1 1 6 5 4 6 7 8 10 11 12 11 9 9 13 13 11 10 12 15 13 13 17 13 8
20 20 21 20 20 20 20 20 20 18 15 9 2 1 2 2 2 2 3 3 3 3 3 2 2 2 2 2 3 4 5 6 7 7 6 5 4 4 5 5 5 6 8 7 4 8 5 2 3 5 3 2 4 4 2 3 3 1 3 3 5 6 1 2 5 5 3 5 5 5 8 12 13 12 12 9 8 9 8 6 6 12 16 16 13 9 5
20 20 21 21 20 20 20 19 19 19 16 10 4 4 7 6 3 2 2 2 3 3 3 2 1 2 2 3 4 5 6 7 7 5 4 5 5 6 6 4 2 3 4 2 4 9 5 3 3 2 2 4 4 2 3 5 4 2 3 3 3 5 4 2 5 5 1 5 4 1 3 6 6 5 6 5 4 10 11 9 8 12 17 14 9 7 8
20 20 21 21 20 19 19 18 18 17 15 11 5 6 9 7 4 2 2 1 2 2 2 2 1 1 3 5 6 7 7 7 5 3 3 5 6 7 8 4 2 1 3 5 6 7 4 2 3 2 1 5 7 5 6 9 7 5 3 3 4 5 6 3 3 4 1 5 6 6 2 2 1 4 3 0 6 14 14 10 7 7 8 7 7 11 14
20 20 21 21 20 19 18 18 17 15 12 10 7 8 10 9 6 2 1 1 2 2 1 2 4 5 7 8 6 6 8 8 8 7 6 6 8 10 9 3 4 2 5 5 4 5 4 2 4 6 7 9 9 10 12 12 10 9 6 4 6 6 6 3 2 4 1 3 5 4 1 2 3 4 4 9 13 18 19 13 8 6 10 14 15 16 16
20 20 21 21 20 19 17 17 16 14 11 9 8 9 11 10 6 2 1 1 2 2 2 5 7 7 8 8 6 6 8 9 9 8 7 6 7 9 6 2 3 3 1 2 2 2 1 3 5 6 8 8 8 8 10 11 13 14 10 4 6 7 6 4 3 3 2 2 4 3 2 2 2 3 7 10 10 13 15 12 8 4 9 16 17 15 15
20 20 21 22 21 19 18 16 15 14 11 9 8 10 11 10 6 2 1 2 3 4 4 5 6 5 6 6 4 5 7 7 6 4 3 3 3 4 3 1 3 4 1 2 1 2 3 3 4 4 5 5 4 5 6 7 11 14 12 7 5 6 6 5 4 2 3 3 2 1 0 1 2 2 2 3 3 4 6 6 4 2 6 11 17 17 15
21 21 22 23 22 20 19 17 16 14 12 9 8 9 10 10 8 5 2 2 3 4 3 3 4 5 6 5 3 3 4 4 3 1 1 2 2 2 4 4 3 4 3 2 2 3 3 3 3 2 3 3 1 3 3 3 6 10 11 9 7 7 4 6 5 2 3 5 3 1 1 3 4 5 3 1 4 6 7 6 4 5 6 9 15 17 17
21 21 23 24 23 21 20 18 17 15 12 9 9 10 10 10 9 6 3 2 3 3 4 6 5 5 5 5 4 2 2 3 3 1 0 2 1 3 6 5 2 3 3 2 2 2 4 3 3 3 1 1 1 1 2 2 3 7 9 9 9 9 5 4 7 4 3 4 3 3 2 2 5 6 4 4 6 8 7 5 2 6 9 10 13 16 16
22 21 23 25 24 23 21 19 18 16 12 9 9 11 10 8 8 7 4 1 2 4 6 7 6 4 3 3 2 1 1 2 2 1 1 2 1 2 4 3 2 2 1 3 2 2 4 3 2 3 1 1 2 1 2 1 2 3 6 7 6 6 6 4 5 5 5 4 2 2 1 2 4 7 6 6 5 4 5 2 4 9 12 12 14 16 15
23 21 22 25 25 24 23 21 19 16 13 10 9 11 10 8 9 9 5 1 3 4 6 7 6 3 2 2 1 2 1 0 1 1 2 3 3 2 2 2 2 1 1 2 2 2 4 3 2 3 1 1 2 1 2 1 2 1 1 2 2 3 4 3 4 5 5 4 2 1 1 3 3 6 6 5 4 5 3 4 6 12 15 13 14 15 14
23 22 22 24 25 25 24 23 20 17 14 12 9 9 10 6 9 12 6 2 3 4 9 12 8 2 1 1 2 3 4 4 3 2 2 3 3 3 2 2 2 1 2 2 3 3 3 2 0 2 2 0 1 2 1 2 2 2 3 3 2 1 2 2 2 3 4 3 2 2 1 3 2 5 4 5 5 1 3 3 7 15 17 14 13 14 14
24 22 22 23 25 25 25 23 21 19 15 12 9 10 11 6 10 16 11 4 3 5 10 13 9 8 6 5 3 2 3 4 3 3 2 2 3 0 3 3 2 2 3 3 3 2 2 2 0 0 2 2 2 3 1 1 2 3 2 1 1 2 2 2 2 2 3 3 3 2 2 3 3 4 4 3 2 4 4 6 10 13 14 14 13 13 12
25 24 22 23 24 25 25 23 22 20 17 13 9 10 11 6 7 16 16 9 3 3 7 11 14 14 12 8 6 4 6 5 3 2 1 2 1 3 2 1 1 1 1 2 2 0 1 3 2 1 1 1 2 3 2 1 2 1 1 1 1 1 2 2 1 0 2 3 2 3 2 2 3 4 3 2 3 5 7 10 10 10 10 11 11 11 11
26 24 23 23 24 25 25 23 22 20 18 17 12 8 9 7 6 11 14 12 8 7 12 21 27 24 14 11 14 10 8 7 4 2 1 0 1 2 2 2 1 1 1 2 2 1 1 2 2 1 0 1 2 2 2 2 1 1 1 2 1 2 2 5 3 0 2 4 3 2 1 4 5 5 5 7 8 7 7 10 11 9 9 9 9 11 13
25 24 24 24 24 25 24 24 23 21 19 19 16 10 11 12 9 8 11 11 9 11 17 22 24 18 7 13 17 15 12 9 6 4 4 2 1 1 3 3 1 2 1 2 3 2 2 2 2 1 1 1 3 3 2 2 1 1 1 3 1 1 2 5 4 4 5 5 3 3 6 7 7 8 8 9 10 9 8 10 10 9 9 8 9 12 14
25 24 24 24 24 24 24 24 23 23 21 20 19 15 14 13 10 9 10 7 4 5 9 10 8 6 7 11 15 17 17 13 9 7 6 5 3 2 2 1 1 1 1 3 4 3 1 2 3 2 1 1 3 4 3 2 3 3 1 3 1 2 1 4 4 5 4 3 2 5 9 8 8 9 9 10 11 10 8 8 8 9 10 10 11 13 14
25 23 23 24 24 23 24 24 23 23 23 23 24 20 12 9 7 7 7 5 3 2 4 6 3 6 10 11 12 15 18 16 13 10 7 8 6 2 1 4 3 4 4 5 3 1 0 1 2 3 2 1 2 3 3 3 4 4 3 3 2 2 3 5 4 3 4 4 5 8 10 9 7 8 8 8 10 10 9 9 10 11 12 13 14 15 13
25 23 23 23 23 22 23 23 23 24 23 24 27 22 10 7 8 7 6 5 4 2 1 4 3 7 11 9 9 13 16 17 16 12 9 8 7 2 2 4 4 3 3 2 1 2 1 1 3 3 2 1 1 3 4 4 4 3 3 3 3 3 4 5 5 6 6 6 8 10 10 9 7 7 7 8 9 11 12 12 12 13 14 14 15 14 13
24 23 23 23 22 22 22 21 22 24 23 23 25 18 7 4 5 5 5 5 2 1 2 3 4 6 8 9 11 13 14 15 16 15 12 9 9 9 6 4 4 3 2 3 3 3 3 4 4 3 2 2 3 3 4 4 5 5 4 3 4 5 5 5 7 7 4 5 7 9 8 7 7 8 10 10 10 12 13 12 12 14 14 13 13 13 13
23 23 23 22 20 21 20 20 21 23 22 24 22 13 6 4 2 2 8 9 2 2 2 3 5 8 7 10 13 11 12 12 14 15 14 12 11 11 9 6 4 4 4 5 3 3 4 3 2 1 1 2 3 4 3 4 5 5 3 3 3 4 7 7 6 5 5 7 8 7 6 7 8 10 12 11 10 11 12 12 12 13 13 13 13 13 13
23 23 22 21 20 20 18 18 20 21 22 24 21 11 4 2 4 1 12 14 5 2 3 2 4 6 3 3 11 9 8 11 10 11 13 13 12 9 7 6 5 4 3 4 3 3 3 1 0 1 0 1 2 3 3 4 4 3 2 3 3 4 9 9 7 7 8 8 7 7 8 9 10 12 13 11 11 11 11 11 12 12 13 14 13 14 15
23 23 22 20 20 18 17 17 17 19 22 23 18 9 2 2 4 5 16 19 10 2 2 1 1 3 2 1 6 9 4 8 6 6 8 8 8 7 6 6 5 4 4 4 3 3 2 1 2 1 0 1 4 4 2 3 3 2 4 4 5 5 6 7 8 10 9 8 8 10 11 10 10 11 11 11 13 13 12 11 13 13 15 17 16 15 17
23 22 22 21 19 17 16 15 15 17 21 20 11 3 2 0 4 11 19 21 14 4 1 1 2 3 2 1 4 6 3 5 3 2 4 4 4 6 8 7 4 4 4 3 3 3 2 2 3 3 3 4 4 3 2 4 4 3 5 6 8 8 7 6 7 9 10 12 12 12 11 10 9 9 9 11 14 15 13 12 15 18 19 21 20 18 19
23 22 21 20 18 16 15 14 13 16 19 17 10 7 7 9 12 16 20 21 14 3 2 2 3 1 1 2 4 4 5 4 1 0 3 4 3 3 5 4 2 2 3 4 3 3 2 2 3 3 4 5 4 4 4 4 4 3 6 8 8 8 9 8 8 10 11 13 14 13 10 8 7 9 10 11 13 15 15 14 18 22 22 21 19 18 18
23 22 21 19 17 16 14 13 13 15 17 17 15 12 10 9 12 15 17 17 11 4 2 1 2 2 2 2 3 3 4 4 2 1 3 3 0 2 2 2 2 3 3 3 2 1 1 2 4 3 4 5 4 4 3 4 5 7 8 8 8 9 10 10 10 10 10 9 11 11 10 9 8 10 11 11 12 15 17 18 20 20 18 14 11 13 17
23 22 20 18 16 14 13 12 13 14 14 14 10 5 4 9 12 13 14 12 7 5 3 1 0 3 3 0 1 4 4 2 2 3 2 4 1 2 2 2 3 3 2 1 1 2 2 2 3 3 3 4 4 4 3 4 7 9 9 8 8 9 10 9 8 8 7 7 7 8 9 10 10 10 11 11 12 14 16 18 18 15 12 9 8 12 17
22 21 19 17 15 13 11 11 12 12 11 10 7 4 7 13 13 12 12 9 2 1 2 1 1 4 3 1 1 5 4 2 2 2 1 3 2 2 2 2 3 2 1 0 2 3 1 1 3 3 2 3 4 2 2 6 7 7 8 8 6 7 8 8 7 7 7 7 8 9 11 11 11 10 10 11 11 11 12 13 13 11 9 9 10 13 15
21 19 17 15 13 11 9 9 9 8 6 5 7 10 14 15 13 12 13 10 4 2 2 2 1 3 2 0 1 3 3 1 0 1 1 1 1 1 2 3 2 1 1 2 4 3 2 2 3 3 3 2 3 2 4 8 8 7 7 7 5 5 7 7 8 9 9 10 12 12 12 12 11 10 10 10 10 10 11 11 10 10 11 11 10 10 11
18 16 15 12 9 6 6 6 6 5 4 6 11 15 15 13 9 8 8 6 6 6 3 1 2 4 3 0 1 1 2 1 1 1 2 2 1 1 2 3 1 1 3 4 3 2 3 4 4 4 3 2 4 4 5 7 7 7 6 5 4 5 6 6 9 12 12 13 14 12 11 12 11 9 10 10 10 9 10 8 8 11 13 11 8 9 11
17 13 9 7 4 1 2 3 5 7 8 8 10 10 8 4 2 2 3 2 4 5 3 1 4 5 2 0 1 1 1 1 1 1 1 1 1 1 1 1 0 0 2 2 2 1 3 3 3 3 3 2 4 6 6 6 6 6 5 5 4 5 6 7 10 13 13 13 13 12 12 12 12 10 10 10 9 8 8 8 10 14 16 13 12 14 17
15 10 6 4 2 1 3 6 10 11 9 6 4 3 2 1 0 1 2 1 2 2 2 2 4 4 1 2 1 1 1 1 2 2 1 0 1 1 0 0 1 1 2 1 3 1 3 1 1 3 2 2 3 5 5 6 6 5 5 5 5 6 7 8 9 11 11 10 10 11 11 11 12 11 9 8 7 9 10 11 13 16 17 17 17 18 18
14 9 5 2 2 7 11 12 10 8 5 2 1 1 0 1 1 1 1 1 1 1 2 3 3 2 1 2 1 2 1 1 1 0 1 0 1 0 1 0 1 1 2 1 2 0 2 2 2 3 2 3 4 5 5 6 5 5 5 5 6 8 9 8 9 11 10 8 9 12 12 12 12 10 8 7 8 9 10 12 14 16 18 19 20 19 18
13 8 5 6 11 18 20 15 8 3 1 0 1 1 0 1 2 1 1 1 1 2 2 1 1 2 0 2 1 1 1 2 1 1 2 1 1 1 2 0 1 1 1 2 2 2 3 2 2 2 4 5 5 6 6 6 5 5 5 5 7 9 10 9 10 12 12 8 8 11 13 14 13 11 12 12 11 10 12 14 16 17 19 20 20 20 20
15 12 13 17 20 19 14 8 3 1 0 1 1 1 1 1 1 1 1 1 1 2 2 1 1 2 1 2 3 1 1 2 2 2 2 1 2 1 1 0 1 1 1 2 1 2 2 2 2 2 4 7 7 7 7 6 6 6 6 6 7 10 11 9 9 12 13 12 9 9 12 14 14 15 18 17 14 14 17 18 16 18 21 21 21 21 21
16 11 10 11 11 7 4 2 1 0 1 0 0 0 0 1 1 1 1 2 1 1 2 2 2 0 1 2 2 1 1 0 1 1 1 1 1 1 1 1 1 0 1 1 1 2 2 2 3 4 5 6 7 8 8 7 6 6 6 7 9 13 14 12 10 12 15 16 13 12 15 17 15 16 20 20 17 18 20 19 19 22 23 21 20 22 23
13 6 4 3 3 2 2 1 0 1 2 1 1 1 1 2 2 2 2 3 2 2 3 3 3 2 1 1 0 1 1 1 1 1 0 0 0 1 1 0 1 1 1 1 0 2 1 1 2 5 6 6 6 7 9 9 7 7 6 7 9 12 13 11 9 9 12 14 14 16 18 18 16 16 20 22 21 20 18 18 23 27 24 19 20 23 25
8 3 2 1 1 1 0 0 0 2 2 1 2 3 3 3 4 4 4 4 3 3 4 3 4 4 2 1 1 1 1 0 1 1 0 0 1 1 0 1 1 0 1 1 1 1 1 1 2 5 7 7 6 7 9 9 8 8 7 7 7 8 8 7 7 8 9 13 16 17 17 16 14 15 17 20 23 21 18 20 26 27 22 19 20 22 24
3 2 0 1 2 2 1 0 1 1 1 1 2 3 4 4 5 5 4 4 5 4 5 5 4 5 3 1 1 1 1 1 1 0 1 2 1 0 1 0 1 1 1 1 2 1 3 4 5 6 8 8 7 7 8 8 9 9 8 7 7 7 7 8 9 9 11 14 16 17 16 15 15 15 17 20 23 22 21 24 27 25 21 20 22 21 23
3 2 1 1 2 1 1 1 1 1 2 2 4 4 5 5 5 4 4 4 3 1 1 3 4 4 2 1 1 1 1 1 1 1 1 2 1 1 1 2 1 1 0 1 3 2 3 5 6 7 8 9 9 8 7 7 8 9 9 8 8 8 9 9 9 11 13 15 15 15 15 16 16 17 18 19 21 22 24 27 27 25 20 19 20 21 24
2 2 1 1 1 1 2 2 2 3 4 4 4 5 5 4 4 6 6 3 1 4 4 2 2 1 1 1 1 1 1 1 1 1 1 2 1 1 2 1 1 2 2 3 4 4 4 6 7 8 9 9 10 9 8 7 7 9 9 9 8 9 9 9 9 13 16 16 14 14 15 16 17 18 18 18 18 21 23 26 28 27 23 19 17 19 25
4 2 1 1 2 2 2 3 3 4 5 5 5 5 5 4 5 6 4 1 1 3 2 3 2 1 0 1 1 0 0 1 1 0 1 1 1 0 0 1 2 2 3 4 5 3 4 6 7 8 9 10 9 9 8 8 7 8 8 8 9 10 10 10 12 16 18 17 15 16 17 18 18 19 19 18 17 19 21 22 23 24 24 20 17 19 24
3 2 1 2 2 3 4 3 3 4 5 5 5 5 5 5 5 4 2 2 2 2 4 4 2 0 1 1 2 1 1 1 2 2 1 1 2 2 1 1 2 4 5 4 3 4 5 7 7 8 9 9 9 8 9 9 8 8 9 10 12 14 14 14 17 19 18 18 18 19 18 18 19 20 20 19 19 22 23 20 19 22 24 20 18 21 24
2 2 2 3 4 4 4 4 4 4 5 5 5 5 5 5 4 3 2 1 3 4 2 1 1 1 1 1 1 1 1 1 2 3 2 2 2 2 2 3 5 6 5 3 4 6 6 7 8 8 9 9 8 8 9 8 8 9 11 13 15 16 16 17 19 19 18 20 22 21 18 19 21 22 23 23 23 23 21 18 18 23 23 19 18 24 27
2 2 2 3 4 5 5 5 5 5 5 6 6 5 4 3 3 3 1 1 2 4 3 2 1 1 1 1 1 1 1 1 1 2 2 2 2 3 4 5 6 6 4 2 5 7 6 7 8 9 9 9 8 8 9 8 8 10 12 14 16 16 16 17 19 19 18 19 21 20 20 22 22 22 23 23 22 19 16 16 19 23 22 17 17 25 28
Wind_Direction
354 354 354 350 348 347 347 349 353 355 357 358 346 324 283 190 305 211 166 167 169 165 225 220 215 246 249 256 263 264 269 269 279 306 308 296 265 202 204 291 290 326 342 330 325 328 275 219 215 178 177 201 212 202 191 191 199 194 203 227 205 129 118 157 206 235 178 183 187 184 201 229 240 238 216 172 170 170 153 161 188 185 155 116 82 92 150
354 356 357 356 352 347 346 349 352 356 360 355 333 318 242 223 306 180 191 195 191 192 248 225 227 254 255 260 266 269 272 271 281 297 292 285 270 183 188 288 293 328 342 320 299 320 354 250 242 204 172 196 210 200 190 193 199 190 184 202 203 183 148 130 146 180 171 180 196 187 198 216 223 248 236 200 170 163 167 184 206 267 182 132 119 124 199
352 355 358 359 355 351 349 351 356 360 2 356 332 310 278 255 54 72 233 232 224 235 268 301 301 287 289 289 289 286 279 281 308 294 282 278 284 307 200 214 247 304 313 301 284 293 270 253 273 255 185 189 200 191 189 196 199 194 184 177 174 175 150 113 135 162 173 182 203 192 184 207 231 257 252 227 187 164 157 161 186 237 157 116 123 143 154
352 355 357 356 355 354 351 353 356 358 2 359 327 296 309 325 93 91 210 225 232 255 269 280 271 275 297 297 293 292 289 302 306 284 269 260 268 310 319 273 340 329 325 318 305 318 298 279 312 293 229 173 198 190 186 193 197 195 180 161 134 123 139 133 136 157 181 185 215 180 148 174 223 240 250 237 210 180 140 120 178 196 122 74 135 145 142
353 354 355 353 353 352 350 352 351 352 359 359 325 282 290 318 319 152 153 187 222 242 250 241 239 250 259 265 297 314 307 312 304 284 273 261 285 325 302 296 300 294 328 331 318 319 308 322 332 293 244 122 254 220 192 195 195 187 168 150 122 82 133 160 148 137 164 139 5 358 158 184 205 228 256 248 220 197 161 139 163 158 123 39 166 146 141
355 354 354 352 350 349 349 351 351 353 356 347 315 270 222 254 300 263 188 212 211 224 256 259 268 275 263 258 316 304 290 293 288 289 315 345 341 334 292 304 302 275 301 309 300 323 327 350 340 305 297 50 274 251 242 205 175 149 143 141 116 105 146 182 150 87 27 9 3 15 27 194 194 206 229 240 223 196 171 156 159 154 150 166 166 153 144
355 354 353 352 350 349 351 354 355 356 353 336 276 257 266 255 302 304 300 258 223 257 302 299 302 298 289 291 292 269 278 287 272 279 320 336 321 319 311 318 326 307 308 312 320 348 352 333 330 338 353 350 312 320 343 302 144 133 139 149 96 97 88 168 115 79 14 346 360 37 47 43 80 185 232 135 96 102 100 87 90 94 102 133 142 138 127
353 352 350 349 351 351 351 353 355 359 0 352 232 209 269 302 292 313 318 294 301 342 316 311 324 323 316 275 257 263 280 305 321 314 320 319 306 304 303 321 347 343 348 359 346 341 11 240 292 355 1 348 351 7 8 349 194 151 141 126 100 97 11 312 93 72 2 6 25 56 74 69 59 40 27 60 82 85 90 97 90 84 87 109 119 115 106
353 351 350 349 350 350 351 353 354 2 11 4 314 246 330 316 282 312 314 305 343 351 321 333 341 304 278 268 294 304 304 333 351 330 305 293 286 293 313 344 4 357 15 31 324 302 329 339 323 357 9 313 315 308 325 352 311 216 104 94 114 110 63 338 76 81 1 15 47 86 90 78 65 42 19 30 68 85 88 82 87 110 119 117 116 123 136
353 352 350 349 349 347 349 352 352 360 10 6 340 333 345 341 332 360 347 297 325 334 321 344 338 287 306 321 316 308 306 326 340 321 295 284 267 267 286 308 17 17 24 66 251 280 321 5 330 311 230 268 293 260 282 334 347 360 48 80 98 101 106 62 80 107 325 342 5 26 69 67 55 15 342 348 70 91 77 51 61 114 130 134 147 158 145
352 352 350 349 348 347 348 349 350 356 1 358 336 312 327 335 328 347 20 340 315 329 333 348 27 281 296 294 290 290 295 304 299 278 289 297 286 276 271 263 86 24 246 207 227 270 287 291 305 303 289 329 349 25 4 354 19 27 22 89 80 78 102 96 65 108 247 321 6 21 34 104 303 295 296 63 102 96 84 64 62 91 107 110 124 132 133
352 351 350 349 347 346 346 347 349 351 346 340 321 296 305 322 317 304 74 16 296 301 295 262 241 249 269 280 287 291 289 285 280 268 260 271 282 283 275 222 131 222 231 201 223 275 277 296 344 356 4 358 4 28 19 4 15 19 15 96 110 95 94 78 52 96 103 341 42 59 217 229 295 323 69 94 98 95 88 71 48 71 102 106 111 126 135
351 350 349 349 347 346 346 346 346 345 338 331 313 290 295 312 313 270 193 270 280 284 288 281 266 253 261 279 292 301 297 291 284 270 253 249 260 269 273 166 165 235 216 151 238 284 7 18 6 353 355 360 2 16 16 6 14 17 10 44 111 117 110 88 68 93 91 47 76 127 219 260 343 38 87 101 105 99 89 69 37 51 113 120 123 130 134
350 349 349 349 348 346 346 347 347 344 339 332 309 289 291 297 289 275 308 298 282 286 293 297 286 264 264 281 302 319 313 301 288 276 266 271 268 270 284 213 222 256 201 138 334 30 76 48 27 360 348 8 8 351 357 3 15 21 11 4 61 102 120 113 78 60 101 103 84 67 359 235 164 126 128 141 143 129 110 93 82 110 127 130 133 134 135
349 348 350 350 348 347 346 347 349 346 343 338 312 289 289 285 273 272 305 308 300 299 272 241 260 281 293 294 285 290 305 310 315 321 296 287 271 253 258 239 230 276 264 146 75 50 90 81 63 43 351 13 30 326 341 355 3 17 16 8 30 51 89 130 115 61 84 102 98 112 169 223 198 192 219 170 120 130 123 104 116 148 148 144 140 138 140
349 348 351 351 348 347 347 348 350 349 346 340 317 297 288 277 267 265 264 269 293 292 260 252 270 299 314 309 297 273 274 302 327 356 288 294 228 205 245 252 234 265 268 132 107 68 80 92 114 113 58 9 90 317 332 17 352 358 13 17 30 35 29 92 108 103 117 118 130 166 185 240 204 182 174 141 142 144 119 86 126 159 151 146 141 140 144
347 347 351 354 351 349 350 349 349 353 352 342 325 304 283 259 251 252 247 248 273 265 259 262 275 297 304 299 314 355 275 311 360 29 274 301 315 200 239 273 277 239 169 96 77 59 80 98 131 114 117 229 106 4 298 67 45 353 5 15 28 41 29 48 103 131 146 130 119 157 206 254 198 160 148 158 163 130 100 123 208 166 151 149 146 146 149
347 346 350 356 356 355 357 353 350 353 353 345 327 297 272 244 232 235 234 266 271 263 267 264 252 240 240 223 161 122 158 215 48 359 304 332 334 279 273 326 331 319 50 85 82 73 76 85 126 126 154 253 103 81 271 126 109 230 143 78 57 69 73 91 125 135 134 124 110 119 262 258 181 149 151 151 110 76 109 207 192 152 146 151 150 148 148
345 344 348 356 358 357 360 358 355 356 352 349 335 294 276 259 233 228 225 256 257 261 284 287 288 310 360 45 117 133 151 160 152 103 35 353 285 273 321 329 298 338 22 62 74 74 86 82 96 131 124 210 154 138 158 153 167 192 146 114 97 122 120 117 118 122 124 118 99 87 312 277 189 138 123 103 90 113 219 196 143 141 145 150 148 146 146
343 341 344 353 357 358 360 360 359 360 354 352 342 301 293 285 232 224 221 241 290 283 280 291 320 349 349 9 44 78 105 127 149 144 143 226 239 296 23 337 292 4 34 62 65 47 113 122 96 141 137 173 173 137 134 151 139 146 148 144 180 162 127 92 103 124 112 91 90 125 191 226 174 126 95 80 135 195 179 120 119 135 143 144 144 144 145
341 340 343 350 353 356 359 359 0 2 359 355 345 305 300 311 232 224 226 239 282 297 279 303 323 314 308 343 20 42 70 93 148 188 219 234 168 113 93 225 204 77 56 121 122 130 143 132 154 206 168 147 149 157 175 145 95 99 137 144 206 222 153 142 170 221 113 125 164 213 215 173 129 125 133 133 138 155 144 129 129 138 141 142 143 143 141
340 340 342 347 350 353 357 358 359 1 358 356 352 312 289 308 277 234 230 235 240 243 268 293 301 294 299 5 23 28 55 81 114 122 56 237 188 162 131 103 93 210 190 118 113 159 176 127 128 162 170 121 119 129 140 121 93 329 42 88 353 301 140 131 131 97 106 127 173 219 87 69 75 95 117 116 109 113 124 126 129 136 140 143 143 140 137
339 340 341 343 346 348 352 354 356 359 357 356 353 323 290 300 297 249 232 236 246 257 268 282 291 293 329 29 24 17 28 50 68 67 63 58 316 327 97 102 174 249 218 152 147 156 172 159 139 127 215 186 135 125 116 103 123 274 33 76 64 239 125 99 105 124 100 68 54 88 86 77 78 91 104 110 110 112 116 118 125 134 139 141 140 136 135
338 340 341 341 342 344 348 350 351 354 354 352 350 332 303 300 295 256 238 238 254 287 294 293 301 337 17 26 21 15 13 19 31 37 52 68 50 7 24 36 197 188 260 247 205 172 171 171 146 130 177 206 151 144 143 133 156 178 131 83 99 230 188 85 101 136 115 66 65 98 95 95 97 98 103 110 114 119 123 125 129 131 131 131 128 129 133
337 340 340 339 338 339 343 345 346 349 350 350 349 341 314 296 296 265 245 252 251 259 303 295 310 27 24 19 29 26 11 7 18 29 48 72 79 96 269 293 257 195 226 260 235 155 329 193 137 123 136 137 112 115 106 119 160 173 147 121 155 193 135 102 97 103 96 103 121 106 98 101 101 98 106 115 116 117 114 112 116 117 117 120 124 129 135
337 339 338 337 336 336 339 341 342 345 347 348 348 341 315 291 311 301 283 289 275 225 242 268 288 29 27 13 25 36 21 7 11 22 40 58 53 29 260 281 286 243 233 275 38 91 72 63 83 89 94 68 62 90 91 101 125 123 102 110 117 107 106 108 106 100 94 107 123 115 106 106 104 100 101 104 109 114 111 108 112 115 115 121 126 132 137
336 338 337 335 332 332 335 337 339 343 346 348 347 339 313 303 334 339 348 351 330 315 344 284 295 347 3 351 3 33 38 18 8 16 32 44 33 12 356 340 334 338 8 17 20 50 57 41 44 69 77 25 24 56 73 79 84 78 64 55 67 85 105 113 116 125 141 148 142 131 120 123 128 119 112 109 110 114 114 116 120 122 125 130 131 132 137
335 336 335 333 330 329 330 332 337 341 342 344 344 336 310 307 316 23 16 16 28 231 277 265 283 303 317 333 345 18 55 38 15 19 25 23 23 22 13 7 7 14 41 51 33 30 53 47 18 28 44 21 38 54 48 42 53 60 46 14 48 121 151 151 136 147 165 155 141 126 111 119 126 120 117 118 116 115 120 127 129 129 134 138 136 136 139
334 334 333 330 327 325 324 327 335 338 338 343 344 336 312 269 209 298 5 9 17 253 277 284 297 292 271 324 332 345 56 59 30 27 30 17 11 16 18 20 25 22 40 70 70 57 63 68 359 43 86 169 107 81 53 45 58 56 5 348 33 134 164 163 139 128 137 138 129 114 110 118 122 119 120 123 123 123 126 129 130 136 144 146 144 145 147
332 332 331 327 324 321 317 322 331 333 334 340 342 336 337 164 206 306 351 0 5 345 277 273 311 289 231 173 310 313 25 79 58 38 46 35 14 11 13 17 27 33 36 45 61 81 84 357 348 22 85 106 99 99 91 91 86 21 344 13 52 86 133 146 134 131 135 130 115 108 109 113 115 116 118 121 126 129 132 139 146 150 149 147 146 149 154
329 330 328 324 320 316 312 315 323 327 329 336 345 8 70 89 291 323 344 350 350 344 214 233 260 270 283 242 260 285 346 73 87 48 51 49 29 23 23 19 20 40 51 46 35 53 65 27 13 4 344 14 63 94 102 100 95 30 18 46 63 66 75 93 107 116 120 116 109 104 106 111 118 121 121 125 133 138 142 150 153 149 147 149 153 158 162
327 326 325 321 317 312 307 306 314 320 320 319 314 291 273 274 294 319 337 342 338 319 187 294 301 269 321 287 250 273 346 359 312 328 24 14 15 34 32 31 34 30 50 65 45 15 28 53 51 25 348 1 48 80 72 83 102 83 59 64 70 73 76 81 90 100 110 116 115 112 115 126 130 129 131 136 142 145 145 145 147 148 152 156 156 153 150
325 324 323 317 311 308 302 298 304 308 307 308 305 292 277 282 302 319 333 338 326 276 206 331 312 265 259 267 268 310 345 337 323 47 10 336 314 111 35 18 37 23 23 57 76 359 27 65 67 47 2 9 59 84 68 74 98 97 87 82 83 87 86 86 94 104 111 119 123 127 136 141 134 129 132 134 136 140 142 142 146 152 156 154 145 134 130
324 322 320 314 307 302 296 293 298 299 300 305 307 293 298 320 322 321 326 329 316 284 284 44 265 280 282 275 321 311 309 324 57 66 353 296 295 94 55 353 16 20 358 7 69 73 63 66 83 77 22 24 62 77 78 94 101 102 101 95 93 98 99 98 105 112 114 115 117 121 127 130 128 129 131 132 133 138 141 144 150 155 154 143 129 124 125
323 321 318 309 300 296 292 289 290 291 292 293 286 283 317 323 316 306 307 312 324 335 318 306 225 290 306 38 323 296 301 2 59 91 203 264 300 64 86 41 16 1 282 292 59 66 73 114 107 89 49 54 65 67 128 131 117 107 108 107 107 112 116 121 129 130 123 120 119 120 126 131 135 136 136 138 143 145 147 154 159 155 141 131 128 126 125
324 321 314 301 292 293 292 278 267 267 271 278 287 300 311 310 300 288 287 284 252 218 277 306 288 281 285 171 231 283 319 13 245 210 123 60 336 2 71 74 41 323 302 32 44 33 3 35 80 61 25 55 80 104 144 135 120 110 112 118 126 127 124 131 137 132 124 122 124 129 136 139 139 140 142 148 155 157 159 166 163 143 128 127 127 123 121
329 322 309 297 292 292 277 255 250 258 273 297 310 310 305 300 295 285 277 260 224 214 226 308 284 266 264 234 225 288 341 332 261 342 34 45 326 329 55 79 79 320 4 27 40 38 16 31 70 71 35 46 83 97 113 117 117 117 116 115 122 123 119 123 127 125 125 127 131 137 143 143 142 147 154 160 166 163 161 161 148 132 129 128 124 122 124
335 329 309 290 284 277 236 268 319 326 311 307 320 320 303 287 289 279 264 211 189 202 202 214 254 259 274 335 219 214 268 297 317 16 30 18 348 350 37 80 139 78 49 7 305 37 51 39 63 82 69 61 75 80 87 99 108 114 116 119 124 121 117 122 128 131 134 139 145 151 152 148 150 158 164 167 165 155 148 141 128 125 127 126 127 130 130
347 344 321 281 253 282 304 310 320 321 310 297 307 317 287 250 109 266 262 199 176 215 216 206 237 261 337 33 331 308 20 357 357 7 33 63 360 336 25 36 317 80 96 285 290 352 70 76 81 88 100 117 101 94 98 104 108 114 122 125 123 120 123 129 134 138 143 150 155 155 152 152 157 164 171 170 155 141 137 132 122 122 126 130 134 138 138
6 360 341 327 329 320 318 317 316 316 314 291 214 180 256 276 210 224 256 264 255 257 234 216 236 254 111 108 300 312 347 6 352 56 94 75 254 207 87 43 254 106 105 229 268 60 104 131 123 119 163 181 152 132 124 119 121 132 137 133 128 129 133 137 141 145 151 154 153 152 156 162 166 166 162 152 140 134 135 132 127 127 132 138 144 149 152
360 353 329 315 310 309 313 319 318 306 311 312 235 194 198 256 254 261 305 304 284 254 226 220 283 292 212 133 143 300 318 313 291 114 92 355 295 50 67 286 245 91 93 240 233 114 106 113 113 144 173 169 152 143 137 133 136 141 139 136 135 137 141 147 152 157 159 155 152 159 164 163 157 145 134 131 127 123 127 133 137 140 143 148 153 155 154
316 303 291 294 298 300 304 308 294 247 130 25 289 226 184 224 261 280 194 220 264 267 240 180 210 264 270 74 78 78 292 307 331 50 75 301 285 49 87 290 5 69 187 235 180 103 111 113 103 146 158 150 147 148 144 141 144 143 142 143 143 146 152 158 163 166 165 161 163 170 163 151 138 132 134 136 131 127 133 140 143 146 149 153 155 152 148
315 302 285 285 288 282 261 248 249 197 112 82 354 229 221 232 262 273 238 227 245 266 237 180 145 199 322 33 54 21 328 349 42 56 86 211 270 34 52 23 28 154 241 274 74 120 167 154 157 175 162 143 146 151 147 145 147 147 149 155 155 157 165 173 175 172 169 166 164 156 147 142 137 137 143 145 138 135 142 149 148 149 153 158 156 151 149
322 302 251 244 257 243 224 248 62 152 180 180 153 159 212 220 208 216 234 240 231 222 223 200 150 148 228 267 54 62 17 5 48 43 41 245 32 66 73 49 231 214 264 356 101 187 198 92 145 160 149 139 145 148 144 146 151 155 162 169 165 165 173 180 173 157 150 148 143 135 133 135 135 135 139 140 139 141 146 147 147 152 159 162 157 154 154
312 273 207 218 285 289 195 124 210 205 201 183 176 190 205 217 222 223 229 242 242 212 198 191 153 144 179 251 58 105 174 335 46 66 201 80 42 48 107 238 260 104 57 315 251 194 127 106 140 144 144 150 153 145 142 149 157 161 168 176 175 173 174 167 149 133 130 135 134 130 130 137 141 140 139 141 145 149 148 143 148 157 164 162 160 160 158
274 258 270 280 281 275 242 223 228 200 180 186 208 216 218 224 232 233 232 245 250 225 195 181 151 132 146 175 70 128 193 106 81 244 221 102 90 301 279 33 22 24 22 292 276 220 172 177 171 156 153 157 153 145 147 155 160 166 175 181 177 169 155 140 134 134 137 137 134 133 140 150 154 151 146 146 150 153 148 145 154 167 169 163 168 173 164
263 281 278 257 263 248 213 229 252 258 253 231 219 227 236 242 253 261 251 241 252 276 152 149 134 128 143 152 135 199 224 125 96 305 350 83 104 286 357 48 22 280 201 247 262 236 178 169 166 160 156 153 150 153 160 159 156 161 166 164 158 153 145 138 136 137 140 141 141 143 151 158 155 149 145 146 151 155 154 155 166 179 181 175 179 181 165
287 312 282 269 277 223 202 216 257 283 284 269 244 242 245 245 254 263 260 256 2 30 41 78 107 105 102 101 120 204 237 86 73 319 345 78 76 11 29 31 283 252 207 218 234 219 173 164 166 161 153 150 152 158 164 162 154 152 151 149 150 151 148 144 142 142 147 152 153 152 155 157 153 148 146 147 150 157 161 164 172 182 189 188 185 174 160
271 284 259 271 293 282 247 235 244 256 261 263 263 261 255 246 248 252 249 233 33 25 48 86 94 74 231 143 124 150 244 96 88 51 40 74 83 113 190 229 256 258 249 240 233 202 161 156 153 145 145 150 156 158 162 162 158 153 152 153 155 155 153 149 148 152 157 161 159 155 157 159 152 148 150 153 156 164 173 174 174 180 188 191 182 166 158
255 260 240 246 279 296 294 281 269 265 262 259 261 260 255 251 260 268 247 164 140 61 42 55 78 132 207 136 104 80 246 186 134 114 121 156 157 171 204 219 218 229 241 238 202 151 139 141 141 141 148 155 157 156 160 162 159 158 161 161 159 160 160 156 155 159 163 163 159 160 162 159 153 154 162 167 167 172 181 184 175 173 179 186 181 170 167
232 239 244 245 252 273 289 290 290 292 286 275 266 260 249 232 233 259 298 41 102 94 69 359 227 129 68 83 140 158 208 155 109 118 171 210 166 155 197 229 229 235 245 227 152 139 139 141 143 146 152 157 158 158 160 160 159 161 164 162 162 163 161 158 159 164 165 163 164 166 165 162 164 171 176 175 169 169 178 184 175 169 175 184 181 172 172
232 238 273 263 250 258 274 279 280 283 281 278 283 293 293 267 230 222 245 36 111 142 166 216 217 109 113 219 210 129 73 48 106 146 182 203 171 178 205 220 227 238 246 182 138 141 147 150 152 153 155 158 158 157 157 157 159 163 166 164 164 165 162 160 164 168 167 164 166 166 164 169 178 180 175 169 165 163 170 179 176 174 180 189 180 170 171